Home > Time Zones > World Clock > Weather > U.S.A. > Adak > Past weeks

Flag for U.S.A. Weather past 2 weeks in Adak, Alaska, U.S.A.

Now
43 °F

More clouds than sun.


Feels Like: 40 °F
Forecast: 40 / 44 °F
Wind: 5 mph from East

Location: Adak

Current Time: May 30, 2015 at 10:45:58 AM

Latest Report: May 30, 2015 at 10:16 AM


Visibility: 8 mi

Pressure: 29.94 "Hg

Humidity: 81%

Dew point: 37 °F

Location of AdakLocation

Historic Weather in Adak — Graph

°F

Adak temperature yesterday

Maximum temperature yesterday: 48 °F (at 12:56 PM)
Minimum temperature yesterday: 41 °F (at 12:16 AM)
Average temperature yesterday: 44 °F

Past Weeks' High & Low Weather Summary

 TemperatureHumidityPressure
High48 °F (May 19, 3:16 PM)87% (May 16, 6:56 AM)30.13 "Hg (May 16, 6:56 AM)
Low37 °F (May 19, 3:56 AM)49% (May 20, 8:56 PM)29.02 "Hg (May 22, 6:56 AM)
Average42 °F74%29.56 "Hg
* Reported May 15 9:16 AM — May 30 9:56 AM, Adak, Weather by CustomWeather, © 2015

Note: Actual official high and low records may vary slightly from our data, if they occured in-between our weather recording intervals... More about our weather records

Advertising

Adak weather history for previous 24 hours

 ConditionsComfort  
Time TempWeatherWind HumidityBarometerVisibility
9:56 AM
Sat, May 30
43 °FMore clouds than sun.3 mph81%29.94 "Hg9 mi
9:36 AM43 °FOvercast.3 mph76%29.94 "Hg10 mi
9:16 AM43 °FMostly cloudy.3 mph76%29.94 "Hg10 mi
8:56 AM41 °FMostly cloudy.No wind81%29.93 "Hg10 mi
8:36 AM41 °FOvercast.No wind81%29.93 "Hg10 mi
8:16 AM41 °FCloudy.No wind81%29.93 "Hg10 mi
7:56 AM41 °FCloudy.No wind81%29.93 "Hg7 mi
7:36 AM39 °FOvercast.No wind87%29.93 "Hg7 mi
7:16 AM39 °FOvercast.No wind87%29.92 "Hg5 mi
6:56 AM41 °FMostly cloudy.No wind81%29.92 "Hg8 mi
6:36 AM39 °FMostly cloudy.No wind87%29.92 "Hg9 mi
6:16 AM41 °FOvercast.No wind81%29.92 "Hg7 mi
5:56 AM41 °FOvercast.No wind81%29.91 "Hg7 mi
5:36 AM41 °FMostly cloudy.No wind81%29.91 "Hg7 mi
5:16 AM41 °FMostly cloudy.No wind81%29.91 "Hg7 mi
4:56 AM41 °FMostly cloudy.No wind81%29.91 "Hg10 mi
4:36 AM41 °FOvercast.3 mph81%29.91 "Hg10 mi
4:16 AM41 °FMostly cloudy.No wind81%29.91 "Hg10 mi
3:56 AM41 °FMostly cloudy.3 mph81%29.91 "Hg9 mi
3:36 AM41 °FOvercast.8 mph81%29.92 "Hg9 mi
3:16 AM43 °FOvercast.9 mph76%29.91 "Hg10 mi
2:56 AM43 °FOvercast.10 mph76%29.92 "Hg10 mi
2:36 AM43 °FOvercast.8 mph76%29.92 "Hg10 mi
2:16 AM43 °FOvercast.9 mph76%29.92 "Hg10 mi
1:56 AM43 °FOvercast.7 mph71%29.92 "Hg10 mi
1:36 AM43 °FOvercast.8 mph71%29.92 "Hg10 mi
1:16 AM43 °FOvercast.10 mph71%29.92 "Hg10 mi
12:56 AM43 °FMostly cloudy.9 mph71%29.92 "Hg10 mi
12:36 AM43 °FOvercast.8 mph71%29.92 "Hg10 mi
12:16 AM43 °FOvercast.8 mph76%29.93 "Hg9 mi
11:56 PM
Fri, May 29
43 °FMostly cloudy.9 mph71%29.92 "Hg10 mi
11:36 PM43 °FMostly cloudy.12 mph71%29.93 "Hg10 mi
11:16 PM43 °FMostly cloudy.9 mph71%29.92 "Hg10 mi
10:56 PM43 °FOvercast.10 mph71%29.92 "Hg10 mi
10:36 PM43 °FOvercast.9 mph71%29.92 "Hg10 mi
10:16 PM43 °FOvercast.9 mph71%29.91 "Hg10 mi
9:56 PM43 °FOvercast.10 mph66%29.91 "Hg10 mi
9:36 PM43 °FOvercast.9 mph66%29.92 "Hg10 mi
9:16 PM43 °FOvercast.10 mph71%29.92 "Hg10 mi
8:56 PM43 °FOvercast.12 mph71%29.92 "Hg10 mi
8:36 PM43 °FOvercast.12 mph71%29.91 "Hg10 mi
8:16 PM45 °FOvercast.16 mph66%29.91 "Hg10 mi
7:56 PM45 °FOvercast.13 mph61%29.91 "Hg10 mi
7:36 PM45 °FOvercast.13 mph61%29.91 "Hg10 mi
7:16 PM45 °FMostly cloudy.17 mph66%29.91 "Hg10 mi
6:56 PM46 °FMostly cloudy.16 mph62%29.90 "Hg10 mi
6:36 PM45 °FOvercast.13 mph71%29.90 "Hg10 mi
5:56 PM45 °FOvercast.15 mph71%29.90 "Hg10 mi
5:36 PM45 °FOvercast.17 mph66%29.90 "Hg10 mi
5:16 PM45 °FMostly cloudy.16 mph71%29.90 "Hg10 mi
4:56 PM46 °FMostly cloudy.18 mph66%29.90 "Hg10 mi
4:36 PM46 °FMostly cloudy.20 mph66%29.89 "Hg10 mi
4:16 PM46 °FOvercast.22 mph66%29.89 "Hg8 mi
3:56 PM46 °FOvercast.17 mph62%29.89 "Hg10 mi
3:36 PM46 °FMostly cloudy.17 mph62%29.89 "Hg10 mi
3:16 PM46 °FMore clouds than sun.17 mph62%29.88 "Hg10 mi
2:56 PM48 °FCloudy.21 mph58%29.88 "Hg10 mi
2:36 PM48 °FMostly cloudy.23 mph58%29.87 "Hg10 mi
2:16 PM48 °FPartly sunny.17 mph54%29.86 "Hg10 mi
1:56 PM48 °FBroken clouds.22 mph62%29.86 "Hg10 mi
1:36 PM48 °FBroken clouds.24 mph62%29.85 "Hg10 mi
1:16 PM48 °FPartly sunny.21 mph58%29.85 "Hg10 mi
12:56 PM48 °FPartly sunny.24 mph58%29.84 "Hg10 mi
12:36 PM46 °FBroken clouds.22 mph62%29.84 "Hg10 mi
12:16 PM46 °FBroken clouds.28 mph62%29.83 "Hg10 mi
11:36 AM46 °FPartly sunny.25 mph66%29.81 "Hg10 mi
11:16 AM45 °FMostly cloudy.23 mph66%29.82 "Hg10 mi
10:56 AM45 °FMore clouds than sun.22 mph66%29.81 "Hg10 mi
10:36 AM45 °FOvercast.23 mph66%29.80 "Hg10 mi
10:16 AM45 °FCloudy.20 mph66%29.79 "Hg10 mi
Weather by CustomWeather, © 2015

See weather overviewHow to use our weather pages